Location: Cincinnati Observatory Center
(39.1389°N, 84.4225°W)
Time: 14:53:06
(UTC-05:00)

Hubble Space Telescope - Visible Passes

Search period start: 12 December 2017 00:00
Search period end: 22 December 2017 00:00
Orbit: 538 x 541 km, 28.5° (Epoch: 11 December)

Date Brightness Start Highest point End Pass type
(mag) Time Alt. Az. Time Alt. Az. Time Alt. Az.
12 Dec 2.8 19:04:27 10° SW 19:07:21 18° S 19:08:42 16° SSE visible
13 Dec 3.0 18:54:10 10° SW 18:57:01 18° S 18:59:11 13° SSE visible
14 Dec 3.1 18:43:56 10° SW 18:46:41 17° S 18:49:25 10° SE visible
15 Dec 3.3 18:33:45 10° SW 18:36:20 16° S 18:38:54 10° SSE visible
16 Dec 3.4 18:23:40 10° SW 18:25:58 15° SSW 18:28:17 10° SSE visible
17 Dec 3.5 18:13:42 10° SW 18:15:37 13° SSW 18:17:32 10° SSE visible
18 Dec 3.7 18:03:59 10° SW 18:05:15 11° SSW 18:06:30 10° S visible
